Regional Weather Roundup
Issued by NWS Wakefield, VA

Home | Current Version | Previous Version | Text Only | Print | Product List | Glossary Off
Versions: 1 2 3 4 5 6 7 8 9 10 11 12 13 14 15 16 17 18 19 20 21 22 23 24 25 26 27 28 29 30 31 32 33 34 35 36 37 38 39 40 41 42 43 44 45 46 47 48 49 50

829
ASUS41 KAKQ 291915
RWRAKQ

REGIONAL WEATHER ROUNDUP
NATIONAL WEATHER SERVICE WAKEFIELD VA
300 PM EDT SUN MAY 29 2016

Note: "fair" indicates few or no clouds below 12,000 feet with no
significant weather and/or obstructions to visibility. * = Denotes
station may not report precipitation (e.g., rain,snow,etc.),
thunder or fog.

VAZ042-051-052>054-056-292000-
NORTHERN VIRGINIA

CITY           SKY/WX    TMP DP  RH WIND       PRES   REMARKS
WASH NATIONAL  NOT AVBL
DULLES         PTSUNNY   83  62  49 SE8       30.10S
FORT BELVOIR   NOT AVBL
QUANTICO       PTSUNNY   81  67  62 S5        30.10F
FREDERICKSBRG* FAIR      82  67  60 CALM      30.08F
STAFFORD*      PTSUNNY   80  66  62 E6        30.13F
WARRENTON      FAIR      83  58  42 CALM      30.10S
CULPEPER*      FAIR      82  65  55 CALM      30.11S
MANASSAS*      SUNNY     82  64  54 S8        30.09F
LEESBURG*      FAIR      86  64  48 SW6       30.10F
WINCHESTER     FAIR      81  61  50 SE6       30.11F
FRONT ROYAL*   FAIR      79  66  65 CALM      30.10F
LURAY*         LGT RAIN  79  63  57 SW7       30.12F
$$

VAZ048-049-060>072-079>083-292000-
CENTRAL AND SOUTH CENTRAL VIRGINIA

CITY           SKY/WX    TMP DP  RH WIND       PRES   REMARKS
RICHMOND       LGT RAIN  76  71  85 E9        30.09S
CHESTERFIELD*  MOCLDY    79  63  57 E5        30.10F
PETERSBURG*    RAIN      73  73 100 E12       30.09S VSB 3/4
HANOVER        RAIN      72  69  90 CALM      30.11S FOG
TAPPAHANNOCK*  DRIZZLE   76  75  96 E6        30.11S
QUINTON*       CLOUDY    73  72  96 E9G17     30.10S FOG
CHARLOTTSVILLE CLOUDY    80  62  54 CALM      30.11F
GORDONSVILLE*  CLOUDY    78  67  69 S3        30.10S
ORANGE*        LGT RAIN  79  66  65 SW3       30.13S
LOUISA*        DRIZZLE   79  72  78 CALM      30.10F
BUMPASS*       CLOUDY    77  69  77 CALM      30.10F
FARMVILLE*     CLOUDY    78  65  65 CALM      30.09F
CREWE*         CLOUDY    76  72  87 NE5       30.09F
FORT PICKETT*  NOT AVBL
CHASE CITY*    CLOUDY    71  70  95 NW3       30.09F
CLARKSVILLE*   CLOUDY    68  68 100 N5        30.09F
SOUTH HILL*    CLOUDY    76  72  85 NE3       30.13F
LAWRENCEVILLE* CLOUDY    76  73  90 E3        30.07F
EMPORIA*       LGT SNOW  70  70 100 NE3       30.09S VSB 1
$$

VAZ088>098-292000-
SOUTHEAST VIRGINIA

CITY           SKY/WX    TMP DP  RH WIND       PRES   REMARKS
NORFOLK        LGT RAIN  78  72  81 SE6       30.09S
VIRGINIA BEACH LGT RAIN  81  71  71 SE9       30.09S
NORFOLK NAVAL  LGT RAIN  78  73  84 S5        30.10S
WEST POINT*    CLOUDY    75  73  94 SE3       30.11F
SALUDA*        MOCLDY    75  73  94 E3        30.10S
NEWPORT NEWS   RAIN      76  74  93 E3        30.09F
LANGLEY AFB    DRIZZLE   77  73  88 E5        30.09S
FORT EUSTIS    FAIR      77  68  73 S5        30.08S
WILLIAMSBURG*  FAIR      77  75  94 E3        30.10S
HR EXEC AP*      N/A     75  73  94 CALM      30.11S
FRANKLIN*      RAIN      75  72  91 SE8       30.08F
US460-WAKEFLD  RAIN      75  72  90 VRB3      30.08F FOG
$$

VAZ020-022-025-037-045-292000-
WEST CENTRAL AND SOUTHWEST VIRGINIA

CITY           SKY/WX    TMP DP  RH WIND       PRES   REMARKS
STAUNTON*      LGT RAIN  73  63  70 SW5       30.17S
WAYNESBORO*    CLOUDY    72  63  73 CALM      30.16S
HOT SPRINGS VA DRZL/FOG  62  62 100 E3        30.24F VSB 3/4
LYNCHBURG      LGT RAIN  69  64  84 W7        30.15F
DANVILLE       LGT RAIN  70  66  87 NE12G21   30.10F
SOUTH BOSTON*  CLOUDY    70  69  95 CALM      30.10F
MARTINSVILLE   CLOUDY    69  64  82 NE7       30.15F
ROANOKE        CLOUDY    74  54  49 NE8       30.17S
BLACKSBURG     LGT RAIN  69  63  80 E3        30.22S
DUBLIN*        CLOUDY    74  60  62 E3        30.19F
MARION*        CLOUDY    73  59  62 CALM      30.22F
HILLSVILLE*    CLOUDY    69  60  74 CALM      30.19F
RICHLANDS*     CLOUDY    74  63  66 NE6       30.20F
WISE*          FAIR      73  57  56 SW3       30.21F
ABINGDON*      FAIR      78  57  47 SE6       30.17S
$$

MDZ021>025-VAZ099-100-292000-
SOUTHERN MARYLAND AND THE DELMARVA PENINSULA

CITY           SKY/WX    TMP DP  RH WIND       PRES   REMARKS
PATUXENT RIVER LGT RAIN  73  70  90 SE14      30.10F
BAY BRIDGE APT MOSUNNY   81  70  69 SW7       30.10S
LEONARDTOWN    CLOUDY    75  68  78 SE8       30.12S
DOVER          NOT AVBL
GEORGETOWN     PTSUNNY   83  69  62 S14       30.11F
EASTON         CLOUDY    84  73  70 SW6       30.13F
CAMBRIDGE      MOSUNNY   79  68  69 S8        30.10S
SALISBURY      RAIN      75  72  90 S13       30.12R FOG
OCEAN CITY     LGT RAIN  72  69  90 VRB3      30.13S FOG
WALLOPS ISLAND CLOUDY    78  73  84 SE13      30.13F
ACCOMACK*      CLOUDY    75  70  83 CALM      30.11S
$$

NCZ012>017-030>032-292000-
NORTH CENTRAL AND EASTERN NORTH CAROLINA

CITY           SKY/WX    TMP DP  RH WIND       PRES   REMARKS
ROANOKE RAPIDS LGT RAIN  72  72 100 E5        30.06F
RALEIGH        CLOUDY    75  71  87 NE8       30.04F
ELIZABETH CITY LGT RAIN  75  72  90 SW7       30.09F
AHOSKIE*       CLOUDY    74  72  94 SE7       30.07F
EDENTON*       DRIZZLE  N/A N/A N/A S3        30.09F
CURRITUCK*     RAIN      76  75  96 SE8       30.10S
KILL DEVIL HLS CLOUDY    86  71  62 S14       30.08S
MANTEO         NOT AVBL
CAPE HATTERAS  HVY RAIN  75  71  87 SW12G25   30.10S FOG
TARBORO*       MOCLDY    79  74  84 E5        30.05F
GOLDSBORO      NOT AVBL
WASHINGTON     HVY RAIN  73  71  92 NW10      30.04F
GREENVILLE     MOSUNNY   81  77  89 E8        30.05F
NEW BERN       MOSUNNY   85  70  60 S15G21    30.05F
WILMINGTON     MOSUNNY   79  72  79 SE13G22   30.00F
$$

VAZ048-292000-
ELSEWHERE

CITY           SKY/WX    TMP DP  RH WIND       PRES   REMARKS
HARRISBURG PA  PTSUNNY   87  56  34 W6        30.07F
BALTIMORE      PTSUNNY   84  62  47 S8        30.09F
ANNAPOLIS      PTSUNNY   78  69  73 SE12      30.09F
ANDREWS AFB    NOT AVBL
PHILADELPHIA   PTSUNNY   86  60  41 S13       30.09F
HENDERSON NC   CLOUDY    67  66  96 N5        30.08F
GREENSBORO     CLOUDY    75  61  61 N9G18     30.09F
ROCKY MOUNT    MOSUNNY   82  74  76 VRB7      30.04F
$$

VAZ100-292000-
MARINE

STATION/POSITION TIME  TEMP    WIND        PRES    WAVE   SWELL
                       AIR SEA DIR/SP/G            HT/PER HT/PER
                 (UTC) (F)     (DEG/KT/KT) (MB)    (FT/S) (FT/S)
BRANDYWINE LGT   1800   65     150/ 15/ 17 1020.4F
CAPE MAY NJ      1800   74 70  140/ 11/ 14 1020.3F
LEWES DE         1800   75 67  150/ 11/ 15 1020.1F
15NM E FENWICK I 1850   68 66              1020.4F   2/ 8
OCEAN-CITY-INLET 1800   71 59  170/  5/  7 1020.9F
WACHAPREAGUE VA  1800   75 78  150/ 10/ 12 1019.5F
THOMAS POINT MD  1900   75 70  180/  5/  5 1020.5F
GOOSES REEF MD   1800   73 70  150/  6/  8 1020.5F   1
COVE POINT MD    1800   72     160/  8/  8 1020.1F
SOLOMONS ISLAND  1800   73 68  100/  8/ 10   N/A
BISHOPS HEAD MD  1800   76 78  160/ 13/ 15 1019.9F
PINEY POINT MD   1800          140/ 13/ 14   N/A
POTOMAC MD       1800   73 72  130/ 12/ 16 1018.7F   0
CAMBRIDGE MD     1800   75 67  320/  7/ 10 1018.6F
LEWISETTA VA     1800   73 74  120/ 16/ 18 1018.9F
RAPPAHANNOCK LGT 1800          150/ 11/ 12 1020.0F
STINGRAY PT      1800   73 71  130/  4/  6 1019.8F   1
YORK RVR RNG VA  1800   71     130/ 13/ 15 1018.5F
YORKTOWN VA      1800   73 71  100/  4/  5 1018.9F
JAMESTOWN VA     1800   75 75  100/  6/  8   N/A     0
DOMINION TERM VA 1800   75     150/  7/  9 1018.9F
KIPTOPEKE VA     1800      71  140/ 10/ 12   N/A
CHES BAY BRIDGE  1800   73 66   90/  2/  6 1019.1F
CAPE HENRY VA    1800   73     140/  7/ 10   N/A
CHESAPEAKE LGHT  1800   72     130/ 14/ 15 1019.8F
WILLOUBY STN VA  1800   77     170/  8/  9 1019.9F
CAPE HENRY BUOY  1812      70                N/A     3/ 6
1ST LANDING BUOY 1800   71 70  130/  8/ 10 1019.2F   2/ 4
CAPE CHARLES BUO 1826      68                N/A     2/ 8   2/ 8
OFFSHORE WE BUOY 1821      71                N/A     3/ 8   3/ 8
64NM E OF VA BCH 1850   68 65  150/  6/  6 1019.6F   4/ 8   3/ 8
DUCK PIER NC     1800   73 59  120/ 16/ 17 1018.3F
44100 DUCK FRF   1824      71                N/A     4/ 8
44056 DUCK FRF   1811      68                N/A     3/ 8
OREGON INLET NC  1800   81 74  130/ 12/ 21 1019.1F
HATTERAS NC      1800   78 76  160/ 11/ 13 1018.7F
DIAMOND SHLS NC  1850   79 75  160/ 17/ 19 1018.6F   6/ 8   2/15
CAPE LOOKOUT NC1F1C2F2C3F3C4F4C5F5C6F6C7F7C8M1C9!



USA.gov is the U.S. government's official web portal to all federal, state and local government web resources and services.